Showing default

COSMOS 2081 (GLONASS), 20621

Orbit data source: Space-Track

COSMOS 2081 (GLONASS), 20621 is a payload satellite owned by UNKS (CIS) in MEO that was launched on Sat, 19 May 1990 UTC via a PROTON-K/DM-2 launch vehicle from the Tyuratam Missile And Space Complex (TTMTR). Payload-class satellites include a variety of spacecraft equipped with specific instruments for various scientific and technological missions. These include communications satellites like Starlink; space stations such as the ISS; scientific satellites like the Hubble; Earth observation satellites from companies like Planet Labs, Umbra, and HawkEye 360; GPS; miniature CubeSats for education and research; and military/defense satellites.

Loading next visibility...
Identifier
20621, 1990-045C
Orbit
MEO
Country
Flag of CISCIS
Related business
Manufacturer
Polyot
Mission
Non-operational Defense Navigation
Bus & Motor
URAGAN, Unknown motor
Mass
1,300 kg wet, ~1,200 kg dry
Launch date (UTC)
1990-05-19 (36 years ago)
Launch vehicle
PROTON-K/DM-2
Launch site
Tyuratam Missile And Space Complex (TTMTR)
Object type
Payload
Rocket body
Debris
Shape & HBR
Cyl + 2 Pan, 4.2 m
Radar Cross Section
14.707 m², Large (>1 m²)

Expand to show TLE details & history
Last TLE update: 3 days ago

TLE from 3 days ago
0 COSMOS 2081 (GLONASS)
1 20621U 90045C   26170.30534390 -.00000056  00000-0  00000-0 0  9994
2 20621  64.7300 308.5738 0046343 212.9438 191.0789  2.13104834280737
Epoch: 2026-06-19T07:19Z
TLE epoch observation values (Epoch: 2026-06-19T07:19:41.712Z)
Latitude
38.91259°
Longitude
-46.54764°
Altitude
19,249.434 km
Speed
3.936 km/s
True Right ascension
22h 03m 38s
True Declination
38° 51' 57"
Sunlit
Object was in daylight at epoch
Visualization orbit readout
Latitude
Unknown
Longitude
Unknown
Altitude
Unknown
Speed
Unknown
Apparent Right ascension
Unknown
Apparent Declination
Unknown
Sunlit
N/A
Visualization observer readout
Local Sidereal Time
23:09:05
Azimuth
Unknown
Elevation
Unknown
Doppler factor
Unknown
Orbital elements
Apogee altitude
19,247.495 km
Perigee altitude
19,011.077 km
Semi-major axis
25,507.423 km
Eccentricity
0.00463
Inclination
64.73°
RAAN
308.5738°
Arg. of periapsis
212.9438°
True anomaly
190.97743°
Mean anomaly
191.0789°
Eccentric anomaly
191.02811°
Mean motion
0.53277 °/min
Orbital period
675.71 mins
BSTAR
0
Loading maneuver chart data...
Computing Atmospheric mass density...
Loading historical data...
Loading historical data...
Loading historical data...
Loading historical data...
Loading historical data...
Loading historical data...
Loading historical data...

Documentation

Showing up to 5 results
|